Mason, MI

7:29 AM EDT on September 20, 2017 (GMT -0400)
Mason Jewett

Weather History for KTEW - December, 2012

Change the Weather History Date:

Monday, December 17, 2012

  Actual Average (KLAN) Record (KLAN)
Temperature  
Mean Temperature 39 °F -  
Max Temperature 41 °F 31 °F 53 °F (1921)
Min Temperature 37 °F 18 °F -14 °F (1884)
Degree Days  
Heating Degree Days 26    
Moisture  
Dew Point 34 °F    
Average Humidity 82    
Maximum Humidity 91    
Minimum Humidity 73    
Precipitation  
Precipitation 0.00 in - - ()
Sea Level Pressure  
Sea Level Pressure 29.67 in    
Wind  
Wind Speed 4 mph (West)    
Max Wind Speed 9 mph    
Max Gust Speed -    
Visibility 9 miles    
Events      
Averages and records for this station are not official NWS values.
T = Trace of Precipitation, MM = Missing Value Source: NWS Daily Summary

Daily Weather History Graph

Daily Weather History Graph

Search for Another Location

Airport or City:

Trip Planner

Search our weather history database for the weather conditions in past years. The results will help you decide how hot, cold, wet, or windy it might be!

Date:

Astronomy

Dec. 17, 2012 Rise Set
Actual Time 8:02 AM EST 5:05 PM EST
Civil Twilight 7:30 AM EST 5:38 PM EST
Nautical Twilight 6:54 AM EST 6:13 PM EST
Astronomical Twilight 6:20 AM EST 6:47 PM EST
Moon 11:04 AM EST (12/17) 10:32 PM EST (12/17)
Length of Visible Light 10h 07m
Length of Day
9h 03m
Waxing Crescent, 24% of the Moon is Illuminated
Dec 17
Waxing Crescent
Dec 20
First Quarter
Dec 28
Full
Jan 4
Last Quarter
Jan 11
New

Hourly Weather History & Observations

Time (EST) Temp. Windchill Dew Point Humidity Pressure Visibility Wind Dir Wind Speed Gust Speed Precip Events Conditions
12:14 AM 41.0 °F 37.1 °F 38.1 °F 89% 29.66 in 7.0 mi SW 5.8 mph - N/A   Overcast
12:34 AM 41.0 °F 39.0 °F 37.9 °F 89% 29.66 in 10.0 mi WSW 3.5 mph - N/A   Overcast
12:54 AM 41.0 °F 38.0 °F 37.9 °F 89% 29.66 in 10.0 mi WSW 4.6 mph - N/A   Overcast
1:14 AM 41.0 °F 37.1 °F 37.8 °F 88% 29.66 in 10.0 mi West 5.8 mph - N/A   Overcast
1:34 AM 41.0 °F 39.0 °F 37.8 °F 88% 29.67 in 10.0 mi WSW 3.5 mph - N/A   Overcast
1:54 AM 41.0 °F 38.0 °F 37.6 °F 88% 29.68 in 7.0 mi WSW 4.6 mph - N/A   Overcast
2:14 AM 40.5 °F 36.5 °F 37.6 °F 89% 29.68 in 7.0 mi SW 5.8 mph - N/A   Overcast
2:34 AM 40.3 °F 38.2 °F 37.6 °F 90% 29.68 in 4.0 mi WSW 3.5 mph - N/A   Light Drizzle
2:54 AM 40.1 °F 36.1 °F 37.6 °F 91% 29.69 in 4.0 mi WSW 5.8 mph - N/A   Light Drizzle
3:14 AM 40.1 °F 38.0 °F 37.6 °F 91% 29.69 in 4.0 mi WSW 3.5 mph - N/A   Overcast
3:34 AM 40.1 °F 36.9 °F 37.6 °F 91% 29.69 in 5.0 mi WSW 4.6 mph - N/A   Overcast
3:54 AM 40.1 °F 34.1 °F 37.2 °F 89% 29.68 in 7.0 mi West 9.2 mph - N/A   Overcast
4:14 AM 40.1 °F 36.9 °F 36.5 °F 87% 29.68 in 10.0 mi West 4.6 mph - N/A   Overcast
4:34 AM 40.1 °F 38.0 °F 37.0 °F 89% 29.68 in 7.0 mi West 3.5 mph - N/A   Overcast
4:54 AM 40.1 °F - 37.0 °F 89% 29.68 in 7.0 mi Calm Calm - N/A   Overcast
5:14 AM 40.1 °F - 37.0 °F 89% 29.68 in 7.0 mi Calm Calm - N/A   Overcast
5:34 AM 40.1 °F 36.1 °F 36.3 °F 86% 29.69 in 10.0 mi WSW 5.8 mph - N/A   Overcast
5:54 AM 40.1 °F 38.0 °F 35.4 °F 83% 29.70 in 10.0 mi WSW 3.5 mph - N/A   Overcast
6:14 AM 40.1 °F 36.9 °F 35.6 °F 84% 29.70 in 10.0 mi WSW 4.6 mph - N/A   Overcast
6:34 AM 40.1 °F 36.1 °F 35.2 °F 83% 29.71 in 10.0 mi SW 5.8 mph - N/A   Overcast
7:14 AM 39.4 °F 34.5 °F 34.9 °F 84% 29.71 in 10.0 mi West 6.9 mph - N/A   Overcast
7:34 AM 39.2 °F 35.0 °F 34.9 °F 84% 29.71 in 10.0 mi West 5.8 mph - N/A   Overcast
7:54 AM 39.2 °F 35.0 °F 35.1 °F 85% 29.72 in 10.0 mi West 5.8 mph - N/A   Overcast
8:15 AM 39.2 °F 35.0 °F 34.7 °F 84% 29.72 in 10.0 mi West 5.8 mph - N/A   Overcast
8:34 AM 39.0 °F 35.7 °F 34.2 °F 83% 29.72 in 10.0 mi West 4.6 mph - N/A   Overcast
8:54 AM 38.8 °F 34.6 °F 34.2 °F 83% 29.72 in 10.0 mi West 5.8 mph - N/A   Overcast
9:14 AM 38.5 °F 35.0 °F 34.5 °F 86% 29.71 in 10.0 mi WNW 4.6 mph - N/A   Overcast
9:34 AM 38.5 °F 35.0 °F 34.3 °F 85% 29.72 in 10.0 mi West 4.6 mph - N/A   Overcast
9:54 AM 38.7 °F 35.2 °F 34.2 °F 84% 29.72 in 10.0 mi WNW 4.6 mph - N/A   Overcast
10:15 AM 39.2 °F 37.0 °F 33.4 °F 80% 29.71 in 10.0 mi West 3.5 mph - N/A   Overcast
10:34 AM 38.7 °F - 33.1 °F 80% 29.71 in 10.0 mi Calm Calm - N/A   Overcast
10:54 AM 38.8 °F - 33.1 °F 80% 29.71 in 10.0 mi Calm Calm - N/A   Overcast
11:14 AM 38.8 °F - 33.3 °F 80% 29.70 in 10.0 mi Calm Calm - N/A   Overcast
11:34 AM 39.2 °F - 32.7 °F 78% 29.69 in 10.0 mi Calm Calm - N/A   Overcast
11:54 AM 39.6 °F - 32.7 °F 76% 29.68 in 10.0 mi Calm Calm - N/A   Overcast
12:14 PM 39.2 °F - 32.5 °F 77% 29.67 in 10.0 mi Calm Calm - N/A   Overcast
12:34 PM 39.4 °F - 33.1 °F 78% 29.67 in 10.0 mi Calm Calm - N/A   Overcast
12:54 PM 39.4 °F - 33.1 °F 78% 29.67 in 10.0 mi Calm Calm - N/A   Overcast
1:14 PM 39.6 °F 37.4 °F 33.4 °F 79% 29.67 in 10.0 mi South 3.5 mph - N/A   Overcast
1:34 PM 39.6 °F - 33.6 °F 79% 29.66 in 10.0 mi Calm Calm - N/A   Overcast
1:54 PM 39.4 °F 37.2 °F 33.1 °F 78% 29.65 in 10.0 mi SW 3.5 mph - N/A   Overcast
2:14 PM 39.9 °F 37.8 °F 32.9 °F 76% 29.65 in 10.0 mi WSW 3.5 mph - N/A   Overcast
2:34 PM 39.4 °F 36.1 °F 32.2 °F 75% 29.65 in 10.0 mi SW 4.6 mph - N/A   Overcast
2:54 PM 39.4 °F - 32.0 °F 75% 29.65 in 10.0 mi Calm Calm - N/A   Overcast
3:14 PM 39.4 °F - 32.0 °F 75% 29.64 in 10.0 mi Calm Calm - N/A   Overcast
3:34 PM 40.1 °F - 32.0 °F 73% 29.65 in 10.0 mi Calm Calm - N/A   Overcast
3:54 PM 39.7 °F - 31.6 °F 73% 29.64 in 10.0 mi Calm Calm - N/A   Overcast
4:14 PM 39.7 °F 37.6 °F 32.0 °F 74% 29.64 in 10.0 mi NNW 3.5 mph - N/A   Overcast
4:35 PM 39.6 °F 37.4 °F 32.0 °F 74% 29.64 in 10.0 mi NNW 3.5 mph - N/A   Overcast
4:54 PM 39.2 °F 37.0 °F 32.0 °F 75% 29.63 in 10.0 mi NNW 3.5 mph - N/A   Overcast
7:35 PM 38.3 °F - 33.4 °F 83% 29.63 in 10.0 mi Calm Calm - N/A   Overcast
7:54 PM 38.1 °F - 33.1 °F 82% 29.64 in 10.0 mi Calm Calm - N/A   Overcast
8:14 PM 38.1 °F - 32.9 °F 81% 29.63 in 10.0 mi Calm Calm - N/A   Overcast
8:35 PM 38.1 °F - 32.7 °F 81% 29.62 in 10.0 mi Calm Calm - N/A   Overcast
8:54 PM 38.3 °F 35.9 °F 32.5 °F 80% 29.62 in 10.0 mi North 3.5 mph - N/A   Overcast
9:14 PM 38.1 °F - 32.5 °F 80% 29.61 in 10.0 mi Calm Calm - N/A   Overcast
9:35 PM 37.9 °F - 32.2 °F 80% 29.62 in 10.0 mi Calm Calm - N/A   Overcast
9:54 PM 37.9 °F - 32.0 °F 79% 29.62 in 10.0 mi Calm Calm - N/A   Overcast
10:14 PM 37.9 °F - 32.5 °F 81% 29.63 in 10.0 mi Calm Calm - N/A   Overcast
10:35 PM 37.4 °F - 33.8 °F 87% 29.64 in 10.0 mi Calm Calm - N/A   Overcast
10:54 PM 37.9 °F - 32.7 °F 81% 29.64 in 10.0 mi Calm Calm - N/A   Overcast
11:14 PM 37.8 °F - 33.1 °F 83% 29.64 in 10.0 mi Calm Calm - N/A   Overcast
11:35 PM 37.8 °F 35.3 °F 32.9 °F 83% 29.64 in 10.0 mi WNW 3.5 mph - N/A   Overcast
11:54 PM 37.4 °F 33.8 °F 32.9 °F 84% 29.65 in 10.0 mi WNW 4.6 mph - N/A   Overcast